User: anonymous   Login
Location: Unspecified
(0.0000°N, 0.0000°E)
Time: 04:54:29
(UTC+00:00)
Language:

ALOS - Orbit

View from above orbital plane
View from above orbital plane
View from above satellite
View from above satellite

Ground track
Ground track

The orbit data is extracted from the following two-line orbital elements,

1 28931U 06002A   18113.90553829  .00000128  00000-0  33771-4 0  9992
2 28931  97.8230 130.3255 0002585  68.2737 291.8734 14.62480704652874
Epoch (UTC): 23 April 2018 21:43:58
Eccentricity: 0.0002585
inclination: 97.8230°
perigee height: 683 km
apogee height: 687 km
right ascension of ascending node: 130.3255°
argument of perigee: 68.2737°
revolutions per day: 14.62480704
mean anomaly at epoch: 291.8734°
orbit number at epoch: 65287

The dashed part of the orbit path shows where the satellite is in the earth's shadow,  

DLR